User: anonymous   Login
Location: Unspecified
(0.0000°N, 0.0000°E)
Time: 05:47:48
(UTC+00:00)
Language:

ANNA 1B - Orbit

View from above orbital plane
View from above orbital plane
View from above satellite
View from above satellite

Ground track
Ground track

The orbit data is extracted from the following two-line orbital elements,

1   446U 62060A   18267.58354696 -.00000131 +00000-0 -97673-5 0  9992
2   446 050.1423 116.5940 0070043 278.0637 109.2408 13.35265439726598
Epoch (UTC): 24 September 2018 14:00:18
Eccentricity: 0.0070043
inclination: 50.1423°
perigee height: 1074 km
apogee height: 1179 km
right ascension of ascending node: 116.5940°
argument of perigee: 278.0637°
revolutions per day: 13.35265439
mean anomaly at epoch: 109.2408°
orbit number at epoch: 72659

The dashed part of the orbit path shows where the satellite is in the earth's shadow,  

DLR